sat.trackr.live / text

‹ back to catalog

GEESAT-6 03

NORAD 65715 · 2025-214D

PAYLOAD ACTIVE UNKNOWN

§ Identity

Operator
Country
PRC
Launch date
2025-09-24
Launch site
YSLA
Launch vehicle
Mass (kg)
RCS (m²)

External: N2YO · Heavens-Above · Gunter

§ Orbital elements

Epoch: 2026-05-24T23:28:27.326784Z

Period
97.08 min
Inclination
49.9836°
Eccentricity
0.0012955
Mean motion
14.83274877 rev/d
Perigee alt
609.9 km
Apogee alt
628.1 km
Semi-major
6,997.1 km
B*
2.0247e-4
RAAN
55.5995°
Arg perigee
132.6378°
Mean anomaly
227.5654°
Rev number
3,606

§ Raw data

GEESAT-6 031 65715U 25214D   26144.97809406  .00001448  00000+0  20247-3 0  99922 65715  49.9836  55.5995 0012955 132.6378 227.5654 14.83274877 36062

JSON: /api/v1/satellites/65715 · /tle

For live sub-satellite position, see the globe view (requires WebGL).

§ Visibility from observer

Set your observer location to see the next 7 days of passes ≥ 10°. The values pass through the URL so the page stays shareable.

No JS? Fill the form by hand. The geolocation button needs JavaScript.